Flight Track Log - Related Links

Times and Time Zones

All times are in EDT time to prevent confusion due to time zone crossing. See the CTL78 flight status page for this flight to view local times or setup timezone preferences in your user account.

Time Position Orientation Groundspeed Altitude Reporting Facility
EDT Latitude Longitude Course Direction KTS MPH feet Rate Location/Type
Fri 08:50:35 PM 43.3564 -84.0117 156° South 151 174 5,000  Level FAA TRACON SMA TRACON (SMA)
Fri 08:50:54 PM 43.3428 -84.0083 170° South 157 181 5,000 167 Level FAA TRACON SMA TRACON (SMA)
Fri 08:51:11 PM 43.3294 -84.0042 167° South 159 183 5,100 158 Climbing FAA TRACON SMA TRACON (SMA)
Fri 08:51:32 PM 43.3158 -83.9986 163° South 162 186 5,100  Level FAA TRACON SMA TRACON (SMA)
Fri 08:51:51 PM 43.2983 -83.9922 165° South 165 190 5,100  Level FAA TRACON SMA TRACON (SMA)
Fri 08:52:00 PM 43.3619 -84.0057 160° South  Level Estimated
Fri 08:52:12 PM 43.2850 -83.9850 158° South 167 192 5,100  Level FAA TRACON SMA TRACON (SMA)
Fri 08:52:31 PM 43.2711 -83.9775 159° South 169 194 5,100  Level FAA TRACON SMA TRACON (SMA)
Fri 08:52:51 PM 43.2578 -83.9686 154° Southeast 169 194 5,100  Level FAA TRACON SMA TRACON (SMA)
Fri 08:53:00 PM 43.3366 -83.9838 148° Southeast  Level FlightAware Approximate
Fri 08:53:12 PM 43.2408 -83.9603 160° South 168 193 5,100  Level FAA TRACON SMA TRACON (SMA)
Fri 08:53:31 PM 43.2272 -83.9539 161° South 169 194 5,100  Level FAA TRACON SMA TRACON (SMA)
Fri 08:53:52 PM 43.2106 -83.9444 158° South 169 194 5,100 150 Level FAA TRACON SMA TRACON (SMA)
Fri 08:54:00 PM 43.3080 -83.9718 160° South  Level Estimated
Fri 08:54:11 PM 43.1972 -83.9367 157° South 168 193 5,200  Level FAA TRACON SMA TRACON (SMA)
Fri 08:54:32 PM 43.1836 -83.9294 159° South 169 194 5,200 -146 Level FAA TRACON SMA TRACON (SMA)
Fri 08:54:52 PM 43.1664 -83.9206 159° South 172 198 5,100 -154 Descending FAA TRACON SMA TRACON (SMA)
Fri 08:55:00 PM 43.2807 -83.9553 156° South  Level FlightAware Approximate
Fri 08:55:11 PM 43.1522 -83.9133 160° South 174 200 5,100  Level FAA TRACON SMA TRACON (SMA)
Fri 08:55:35 PM 43.1381 -83.9050 157° South 175 201 5,100  Level FAA TRACON SMA TRACON (SMA)
Fri 08:55:55 PM 43.1208 -83.8953 158° South 173 199 5,100  Level FAA TRACON SMA TRACON (SMA)
Fri 08:56:11 PM 43.1078 -83.8872 156° South 171 197 5,100  Level FAA TRACON SMA TRACON (SMA)
Fri 08:56:32 PM 43.0942 -83.8797 158° South 171 197 5,100  Level FAA TRACON SMA TRACON (SMA)
Fri 08:56:53 PM 43.0772 -83.8703 158° South 170 196 5,100 -150 Level FAA TRACON SMA TRACON (SMA)
Fri 08:57:12 PM 43.0636 -83.8622 157° South 171 197 5,000 -154 Descending FAA TRACON SMA TRACON (SMA)
Fri 08:57:32 PM 43.0503 -83.8553 159° South 170 196 5,000 154 Level FAA TRACON SMA TRACON (SMA)
Fri 08:57:51 PM 43.0372 -83.8472 156° South 167 192 5,100 150 Climbing FAA TRACON SMA TRACON (SMA)
Fri 08:58:12 PM 43.0211 -83.8378 157° South 166 191 5,100 -146 Level FAA TRACON SMA TRACON (SMA)
Fri 08:58:32 PM 43.0078 -83.8314 161° South 165 190 5,000 -150 Descending FAA TRACON SMA TRACON (SMA)
Fri 08:58:52 PM 42.9944 -83.8242 158° South 166 191 5,000 -154 Level FAA TRACON SMA TRACON (SMA)
Fri 08:59:11 PM 42.9778 -83.8147 157° South 167 192 4,900 -150 Descending FAA TRACON SMA TRACON (SMA)
Fri 08:59:32 PM 42.9647 -83.8069 156° South 168 193 4,900 150 Level FAA TRACON SMA TRACON (SMA)
Fri 08:59:51 PM 42.9517 -83.7994 157° South 167 192 5,000  Climbing FAA TRACON SMA TRACON (SMA)
Fri 09:00:12 PM 42.9356 -83.7900 157° South 163 188 4,900 -146 Descending FAA TRACON SMA TRACON (SMA)
Fri 09:00:32 PM 42.9228 -83.7828 158° South 163 188 4,900 154 Level FAA TRACON SMA TRACON (SMA)
Fri 09:00:51 PM 42.9097 -83.7753 157° South 163 188 5,000 150 Climbing FAA TRACON SMA TRACON (SMA)
Fri 09:01:12 PM 42.8936 -83.7664 158° South 163 188 5,000 -146 Level FAA TRACON SMA TRACON (SMA)
Fri 09:01:32 PM 42.8806 -83.7614 164° South 161 185 4,900  Descending FAA TRACON SMA TRACON (SMA)
Fri 09:01:53 PM 42.8628 -83.7592 175° South 164 189 5,000 154 Climbing FAA TRACON SMA TRACON (SMA)
Fri 09:02:11 PM 42.8503 -83.7536 162° South 153 176 5,000  Level FAA TRACON SMA TRACON (SMA)
Fri 09:02:32 PM 42.8378 -83.7475 160° South 157 181 5,000 -150 Level FAA TRACON SMA TRACON (SMA)
Fri 09:02:51 PM 42.8242 -83.7444 171° South 159 183 4,900 -150 Descending FAA TRACON SMA TRACON (SMA)
Fri 09:03:12 PM 42.8072 -83.7392 167° South 161 185 4,900 146 Level FAA TRACON SMA TRACON (SMA)
Fri 09:03:32 PM 42.7939 -83.7344 165° South 160 184 5,000 154 Climbing FAA TRACON SMA TRACON (SMA)
Fri 09:03:51 PM 42.7808 -83.7300 166° South 159 183 5,000 -150 Level FAA TRACON SMA TRACON (SMA)
Fri 09:04:12 PM 42.7642 -83.7244 166° South 159 183 4,900  Descending FAA TRACON SMA TRACON (SMA)
Fri 09:04:32 PM 42.7508 -83.7203 167° South 159 183 5,000  Climbing FAA TRACON SMA TRACON (SMA)
Fri 09:04:52 PM 42.7375 -83.7158 166° South 159 183 4,900  Descending FAA TRACON SMA TRACON (SMA)
Fri 09:05:12 PM 42.7208 -83.7097 165° South 159 183 5,000 154 Climbing FAA TRACON SMA TRACON (SMA)
Fri 09:05:31 PM 42.7075 -83.7044 164° South 162 186 5,000  Level FAA TRACON SMA TRACON (SMA)
Fri 09:05:52 PM 42.6942 -83.7003 167° South 160 184 5,000 -293 Level FAA TRACON SMA TRACON (SMA)
Fri 09:06:12 PM 42.6775 -83.6944 166° South 161 185 4,800 -293 Descending FAA TRACON SMA TRACON (SMA)
Fri 09:06:33 PM 42.6639 -83.6897 166° South 162 186 4,800 -150 Level FAA TRACON SMA TRACON (SMA)
Fri 09:06:52 PM 42.6497 -83.6850 166° South 166 191 4,700 -308 Descending FAA TRACON SMA TRACON (SMA)
Fri 09:07:12 PM 42.6319 -83.6797 168° South 167 192 4,600 -154 Descending FAA TRACON SMA TRACON (SMA)
Fri 09:07:31 PM 42.6178 -83.6750 166° South 168 193 4,600 -150 Level FAA TRACON SMA TRACON (SMA)
Fri 09:07:52 PM 42.6039 -83.6700 165° South 168 193 4,500 -293 Descending FAA TRACON SMA TRACON (SMA)
Fri 09:08:12 PM 42.5864 -83.6628 163° South 169 194 4,400 -300 Descending FAA TRACON SMA TRACON (SMA)
Fri 09:08:32 PM 42.5722 -83.6578 165° South 169 194 4,300 -300 Descending FAA TRACON SMA TRACON (SMA)
Fri 09:08:52 PM 42.5583 -83.6531 166° South 168 193 4,200 -154 Descending FAA TRACON SMA TRACON (SMA)
Fri 09:09:11 PM 42.5414 -83.6472 166° South 166 191 4,200 -150 Level FAA TRACON SMA TRACON (SMA)
Fri 09:09:32 PM 42.5278 -83.6425 166° South 165 190 4,100 -146 Descending FAA TRACON SMA TRACON (SMA)
Fri 09:09:52 PM 42.5139 -83.6381 167° South 165 190 4,100  Level FAA TRACON SMA TRACON (SMA)
Fri 09:10:12 PM 42.4969 -83.6322 166° South 164 189 4,100 -150 Level FAA TRACON SMA TRACON (SMA)
Fri 09:10:32 PM 42.4836 -83.6272 165° South 163 188 4,000 -154 Descending FAA TRACON SMA TRACON (SMA)
Fri 09:10:51 PM 42.4697 -83.6214 163° South 166 191 4,000 -450 Level FAA TRACON SMA TRACON (SMA)
Fri 09:11:12 PM 42.4525 -83.6153 165° South 169 194 3,700 -750 Descending FAA TRACON SMA TRACON (SMA)
Fri 09:11:31 PM 42.4383 -83.6108 167° South 171 197 3,500 -750 Descending FAA TRACON SMA TRACON (SMA)
Fri 09:11:52 PM 42.4206 -83.6044 165° South 172 198 3,200 -585 Descending FAA TRACON SMA TRACON (SMA)
Fri 09:12:12 PM 42.4067 -83.5994 165° South 168 193 3,100 -308 Descending FAA TRACON SMA TRACON (SMA)
Fri 09:12:31 PM 42.3931 -83.5950 166° South 164 189 3,000 -600 Descending FAA TRACON SMA TRACON (SMA)
Fri 09:12:52 PM 42.3772 -83.5861 157° South 158 182 2,700 -750 Descending FAA TRACON SMA TRACON (SMA)
Fri 09:13:11 PM 42.3644 -83.5778 154° Southeast 156 180 2,500 -450 Descending FAA TRACON SMA TRACON (SMA)
Fri 09:13:32 PM 42.3522 -83.5689 152° Southeast 156 180 2,400 -293 Descending FAA TRACON SMA TRACON (SMA)
Fri 09:13:52 PM 42.3375 -83.5581 151° Southeast 154 177 2,300 -154 Descending FAA TRACON SMA TRACON (SMA)
Fri 09:14:11 PM 42.3256 -83.5489 150° Southeast 150 173 2,300 -150 Level FAA TRACON SMA TRACON (SMA)
Fri 09:14:32 PM 42.3161 -83.5411 149° Southeast 140 161 2,200 -300 Descending FAA TRACON SMA TRACON (SMA)
Fri 09:14:51 PM 42.3017 -83.5339 160° South 138 159 2,100 -450 Descending FAA TRACON SMA TRACON (SMA)
Fri 09:15:12 PM 42.2900 -83.5286 161° South 143 165 1,900 -585 Descending FAA TRACON SMA TRACON (SMA)
Fri 09:15:32 PM 42.2786 -83.5228 159° South 141 162 1,700 -769 Descending FAA TRACON SMA TRACON (SMA)
Fri 09:15:51 PM 42.2683 -83.5175 159° South 125 144 1,400 -900 Descending FAA TRACON SMA TRACON (SMA)
Fri 09:16:12 PM 42.2569 -83.5167 177° South 100 115 1,100 -600 Descending FAA TRACON SMA TRACON (SMA)
Fri 09:16:31 PM 42.2483 -83.5186 189° South 95 109 1,000 -150 Descending FAA TRACON SMA TRACON (SMA)
Fri 09:16:52 PM 42.2483 -83.5186 346° North 95 109 1,000  Level FAA TRACON SMA TRACON (SMA)
Fri 09:18:00 PM 42.2333 -83.5167 North  Level FlightAware Approximate
Fri 09:25:00 PM 42.2393 -83.5310 North  Level Estimated

Login

Don't have an account? Register now (free) for customized features, flight alerts, and more!